| time (UTC) | temp C | wind direction | speed KPH | gust KPH | rain 1hr cm | rain 24hr cm | rain mn cm | humidity % | barometer mb |
| 20260504000041 | 16 | 160 | 9.7 | 19.3 | 0.00 | 0.00 | 0.00 | 59 | 1025.6 |
| 20260503234539 | 17 | 141 | 11.3 | 25.7 | 0.00 | 0.00 | 0.00 | 58 | 1025.7 |
| 20260503233025 | 16 | 239 | 9.7 | 19.3 | 0.00 | 0.00 | 0.00 | 59 | 1025.8 |
| 20260503231525 | 16 | 162 | 12.9 | 25.7 | 0.00 | 0.00 | 0.00 | 59 | 1026.0 |
| 20260503230036 | 16 | 323 | 8.0 | 20.9 | 0.00 | 0.00 | 0.00 | 62 | 1025.9 |
| 20260503224522 | 16 | 25 | 11.3 | 30.6 | 0.00 | 0.00 | 0.00 | 62 | 1025.6 |
| 20260503223020 | 16 | 235 | 12.9 | 27.4 | 0.00 | 0.00 | 0.00 | 58 | 1026.7 |
| 20260503221518 | 16 | 162 | 12.9 | 29.0 | 0.00 | 0.00 | 0.00 | 57 | 1026.3 |
| 20260503220018 | 16 | 173 | 9.7 | 27.4 | 0.00 | 0.00 | 0.00 | 57 | 1026.8 |
| 20260503214534 | 16 | 250 | 16.1 | 30.6 | 0.00 | 0.00 | 0.00 | 56 | 1026.7 |
| 20260503213004 | 16 | 205 | 9.7 | 27.4 | 0.00 | 0.00 | 0.00 | 56 | 1027.0 |
| 20260503211501 | 16 | 175 | 12.9 | 27.4 | 0.00 | 0.00 | 0.00 | 56 | 1027.0 |
| 20260503210059 | 16 | 248 | 12.9 | 32.2 | 0.00 | 0.00 | 0.00 | 56 | 1027.7 |
| 20260503204620 | 16 | 186 | 9.7 | 37.0 | 0.00 | 0.00 | 0.00 | 56 | 1027.8 |
| 20260503203100 | 16 | 193 | 14.5 | 29.0 | 0.00 | 0.00 | 0.00 | 56 | 1028.4 |
| 20260503201555 | 16 | 214 | 12.9 | 27.4 | 0.00 | 0.00 | 0.00 | 57 | 1028.1 |
| 20260503200051 | 16 | 154 | 17.7 | 38.6 | 0.00 | 0.00 | 0.00 | 55 | 1029.2 |
| 20260503194549 | 16 | 238 | 14.5 | 25.7 | 0.00 | 0.00 | 0.00 | 56 | 1029.7 |
| 20260503193044 | 16 | 235 | 16.1 | 27.4 | 0.00 | 0.00 | 0.00 | 54 | 1030.4 |
| 20260503191602 | 16 | 231 | 12.9 | 40.2 | 0.00 | 0.00 | 0.00 | 55 | 1030.5 |
| 20260503190036 | 16 | 224 | 17.7 | 30.6 | 0.00 | 0.00 | 0.00 | 54 | 1030.3 |
| 20260503184536 | 16 | 185 | 22.5 | 46.7 | 0.00 | 0.00 | 0.00 | 52 | 1030.5 |
| 20260503183031 | 16 | 219 | 12.9 | 35.4 | 0.00 | 0.00 | 0.00 | 55 | 1030.6 |
| 20260503181541 | 16 | 236 | 19.3 | 35.4 | 0.00 | 0.00 | 0.00 | 53 | 1031.0 |
| 20260503180029 | 16 | 217 | 24.1 | 46.7 | 0.00 | 0.00 | 0.00 | 54 | 1031.3 |
| 20260503174525 | 16 | 159 | 17.7 | 37.0 | 0.00 | 0.00 | 0.00 | 55 | 1031.6 |
| 20260503173011 | 16 | 166 | 17.7 | 29.0 | 0.00 | 0.00 | 0.00 | 57 | 1032.2 |
| 20260503171508 | 16 | 218 | 22.5 | 37.0 | 0.00 | 0.00 | 0.00 | 54 | 1032.5 |
| 20260503160107 | 14 | 166 | 16.1 | 35.4 | 0.00 | 0.00 | 0.00 | 60 | 1033.7 |
| 20260503081510 | 2 | 32 | 0.0 | 0.0 | 0.00 | 0.00 | 0.00 | 97 | 1034.5 |
| 20260503071538 | 2 | 32 | 0.0 | 0.0 | 0.00 | 0.00 | 0.00 | 95 | 1034.5 |
| 20260503054544 | 2 | 32 | 0.0 | 0.0 | 0.00 | 0.00 | 0.00 | 93 | 1034.9 |
| 20260503053031 | 2 | 32 | 0.0 | 0.0 | 0.00 | 0.00 | 0.00 | 93 | 1035.0 |
| 20260503051510 | 2 | 32 | 0.0 | 0.0 | 0.00 | 0.00 | 0.00 | 93 | 1035.1 |
| 20260503050010 | 2 | 32 | 0.0 | 0.0 | 0.00 | 0.00 | 0.00 | 92 | 1035.0 |
| 20260503044556 | 2 | 32 | 0.0 | 0.0 | 0.00 | 0.00 | 0.00 | 92 | 1035.1 |
| 20260503043058 | 2 | 32 | 0.0 | 0.0 | 0.00 | 0.00 | 0.00 | 91 | 1034.9 |
| 20260503041554 | 3 | 32 | 0.0 | 0.0 | 0.00 | 0.00 | 0.00 | 90 | 1035.1 |
| 20260503040055 | 3 | 32 | 0.0 | 0.0 | 0.00 | 0.00 | 0.00 | 90 | 1035.1 |
| 20260503034550 | 3 | 32 | 0.0 | 0.0 | 0.00 | 0.00 | 0.00 | 89 | 1035.1 |
| 20260503033048 | 3 | 32 | 0.0 | 0.0 | 0.00 | 0.00 | 0.00 | 87 | 1035.2 |
| 20260503031547 | 3 | 32 | 0.0 | 0.0 | 0.00 | 0.00 | 0.00 | 86 | 1035.1 |
| 20260503030044 | 4 | 32 | 0.0 | 0.0 | 0.00 | 0.00 | 0.00 | 84 | 1035.1 |
| 20260503024528 | 5 | 32 | 0.0 | 0.0 | 0.00 | 0.00 | 0.00 | 82 | 1035.1 |
| 20260503023028 | 5 | 32 | 0.0 | 0.0 | 0.00 | 0.00 | 0.00 | 82 | 1035.0 |
| 20260503021514 | 5 | 32 | 0.0 | 0.0 | 0.00 | 0.00 | 0.00 | 78 | 1034.9 |
| 20260503020014 | 6 | 32 | 0.0 | 0.0 | 0.00 | 0.00 | 0.00 | 75 | 1034.8 |
| 20260503014513 | 6 | 32 | 0.0 | 0.0 | 0.00 | 0.00 | 0.00 | 72 | 1034.6 |
| 20260503013027 | 6 | 32 | 0.0 | 0.0 | 0.00 | 0.00 | 0.00 | 70 | 1034.5 |
| 20260503011512 | 7 | 32 | 0.0 | 0.0 | 0.00 | 0.00 | 0.00 | 64 | 1034.4 |
| 20260503010013 | 8 | 32 | 0.0 | 0.0 | 0.00 | 0.00 | 0.00 | 62 | 1034.2 |
| 20260503004512 | 9 | 32 | 0.0 | 0.0 | 0.00 | 0.00 | 0.00 | 58 | 1034.2 |
| 20260503003012 | 11 | 32 | 0.0 | 0.0 | 0.00 | 0.00 | 0.00 | 48 | 1034.2 |
| 20260503001554 | 12 | 32 | 0.0 | 3.2 | 0.00 | 0.00 | 0.00 | 45 | 1034.2 |